Regional Weather Roundup
Issued by NWS

Home | Current Version | Previous Version | Graphics & Text | Print | Product List | Glossary On
Versions: 1 2 3 4 5 6 7 8 9 10 11 12 13 14 15 16 17 18 19 20 21 22 23 24 25 26 27 28 29 30 31 32 33 34 35 36 37 38 39 40 41 42 43 44 45 46 47 48 49 50
000
ASUS43 KIND 221309
RWRIN

WEATHER ROUNDUP FOR INDIANA
NATIONAL WEATHER SERVICE INDIANAPOLIS IN
800 AM EST SUN JAN 22 2017

NOTE: "FAIR" INDICATES FEW OR NO CLOUDS BELOW 12,000 FEET WITH NO
SIGNIFICANT WEATHER AND/OR OBSTRUCTIONS TO VISIBILITY.

* - STATION DOES NOT REPORT WEATHER SUCH AS PRECIPITATION OR FOG.

+ - STATION NOT QUALITY CONTROLLED BY THE NATIONAL WEATHER SERVICE.
    USE DATA WITH CAUTION...ESPECIALLY DEWPOINT AND RELATIVE
    HUMIDITY OBSERVATIONS.

INZ001>003-010>013-019-020-221400-
NORTHWEST INDIANA

CITY           SKY/WX    TMP DP  RH WIND       PRES   REMARKS
GARY /AIRPORT/ CLOUDY    41  41 100 E3        29.62R VSB 1/2
KNOX *+        CLOUDY    36  32  87 N8        29.59S VSB 1/4
LA PORTE +     FOG       36  36 100 N5        29.60R VSB 1/4
MICHIGAN CITY+ FOG       37  37 100 N6        29.62R VSB 1/4
MONTICELLO +   PTCLDY    37  35  94 CALM      29.56R FOG
RENSSELAER +   HVY SNOW  36  36 100 N5        29.59R VSB 1/4
VALPARAISO     FOG       37  36  96 N3        29.60R VSB 1/4

$$

LMZ046-743>745-221400-
SOUTHERN LAKE MICHIGAN

STATION/POSITION TIME  TEMP    WIND        PRES    WAVE
                       AIR SEA DIR/SP/G            HT
                 (UTC) (F)     (DEG/KT/KT) (MB)    (FT)
BURNS HARBOR     1240   35      50/  7/  7 1003.7R
MICHIGAN CITY    1240   36      30/  8/  8   N/A

$$

INZ004-005-014>016-021>024-221400-
NORTH CENTRAL INDIANA

CITY           SKY/WX    TMP DP  RH WIND       PRES   REMARKS
GOSHEN         FOG       37  35  92 N3        29.59R VSB 1/4
LOGANSPORT +   CLEAR     41  41 100 SE6       29.57S
ROCHESTER +    FOG       36  36 100 CALM      29.58S VSB 1/2
SOUTH BEND     FOG       35  35 100 N6        29.61R VSB 1/4 WCI  30
WARSAW +       FOG       32  32 100 N3        29.58S VSB 1/4

$$

INZ006>009-017-018-025>027-221400-
NORTHEAST INDIANA

CITY           SKY/WX    TMP DP  RH WIND       PRES   REMARKS
ANGOLA *+      CLOUDY    36  32  87 CALM      29.59S VSB 1/4
AUBURN +       FOG       41  41 100 CALM      29.59S VSB 1/4
FORT WAYNE     MOCLDY    48  45  89 CALM      29.58S
HUNTINGTON +   FOG       43  42  96 CALM      29.57S VSB 3/4
KENDALLVILLE + FOG       38  38 100 CALM      29.59S VSB 1/4

$$

INZ028-029-035-036-043>045-051>053-221400-
WEST CENTRAL INDIANA

CITY           SKY/WX    TMP DP  RH WIND       PRES   REMARKS
CRAWFORDSVL +  CLOUDY    46  46 100 E7        29.56R
GREENCASTLE +  CLOUDY    46  46 100 SE6       29.57R FOG
LAFAYETTE      FOG       40  40 100 CALM      29.56R VSB 1/4
TERRE HAUTE    CLOUDY    47  45  93 CALM      29.56R

$$

INZ030>032-037>040-046>048-054>057-064-065-221400-
CENTRAL INDIANA

CITY           SKY/WX    TMP DP  RH WIND       PRES   REMARKS
CP ATTERBURY + CLOUDY    37  37 100 N3        29.58S
COLUMBUS       CLEAR     41  41 100 NW5       29.57R
FISHERS *+     CLOUDY    48  48 100 E6        29.57
FRANKFORT +    PTCLDY    49  47  90 SE8       29.58R
GREENWOOD *+   MOCLDY    50  49  97 E7        29.58R
INDIANAPOLIS   CLOUDY    49  47  93 E6        29.57R
-EAGLE CREEK   CLOUDY    47  46  97 E5        29.56S
KOKOMO +       CLEAR     43  42  97 SE7       29.58R
MARION +       CLEAR     46  45  93 SE6       29.58R
MT COMFORT *+  CLOUDY    48  46  93 E9        29.58R
SHELBYVILLE    PTCLDY    50  47  89 E9        29.57R
ZIONSVILLE +   CLOUDY    47  45  92 E6        29.58R

$$

INZ033-034-041-042-049-050-058-059-221400-
EAST CENTRAL INDIANA

CITY           SKY/WX    TMP DP  RH WIND       PRES   REMARKS
MUNCIE         MOCLDY    51  46  83 SE9       29.58R

$$

INZ060-061-067>069-081>083-085>088-221400-
SOUTHWEST INDIANA

CITY           SKY/WX    TMP DP  RH WIND       PRES   REMARKS
EVANSVILLE     CLOUDY    51  47  86 NE3       29.52S
HUNTINGBURG *+ CLOUDY    49  47  93 NE6       29.53S
WASHINGTON +   CLOUDY   N/A N/A N/A NE3       29.54S

$$

INZ062-063-066-070>080-084-089>092-221400-
SOUTH CENTRAL AND SOUTHEAST INDIANA

CITY           SKY/WX    TMP DP  RH WIND       PRES   REMARKS
BLOOMINGTON    CLOUDY    48  45  89 CALM      29.56R
MADISON *+     CLOUDY    46  45  93 NE5       29.57F
NORTH VERNON + CLOUDY   N/A N/A N/A E5        29.57F
SEYMOUR +        N/A     45  45 100 NW3       29.56S FOG

$$




USA.gov is the U.S. government's official web portal to all federal, state and local government web resources and services.